When you browse on this site, cookies collect data to enhance your experience and personalize the content and advertising you see.
Visit our Privacy Policy to learn more. By continuing to use the site, you agree to this use of cookies and data.
  • En España
  • Lista de países
  • Para 7 días
  • Temperatura del agua
  • El tiempo en el mapa
  • Informadores
  • user-avatar
    Iniciar sesión

    Tiempo cada hora Batina

    Hoy, 15 Diciembre, Domingo

    Tiempo Temperatura Precipitaciones Viento Presión Humedad
    00:00 +9°C° 0 mm 2 mps 671 mmHg 70%
    01:00 +8°C° 0 mm 2 mps 671 mmHg 70%
    02:00 +8°C° 0 mm 2 mps 671 mmHg 70%
    03:00 +8°C° 0 mm 2 mps 670 mmHg 70%
    04:00 +8°C° 0 mm 2 mps 670 mmHg 68%
    05:00 +8°C° 0 mm 2 mps 670 mmHg 67%
    06:00 +8°C° 0 mm 2 mps 670 mmHg 66%
    07:00 +9°C° 0 mm 3 mps 671 mmHg 61%
    08:00 +11°C° 0 mm 3 mps 672 mmHg 57%
    09:00 +12°C° 0 mm 3 mps 673 mmHg 52%
    10:00 +14°C° 0 mm 3 mps 673 mmHg 48%
    11:00 +15°C° 0 mm 4 mps 673 mmHg 44%
    12:00 +17°C° 0 mm 4 mps 673 mmHg 39%
    13:00 +17°C° 0 mm 4 mps 672 mmHg 41%
    14:00 +15°C° 0 mm 4 mps 672 mmHg 43%
    15:00 +16°C° 0 mm 3 mps 672 mmHg 46%
    16:00 +13°C° 0 mm 3 mps 671 mmHg 51%
    17:00 +12°C° 0 mm 3 mps 671 mmHg 56%
    18:00 +10°C° 0 mm 3 mps 671 mmHg 61%
    19:00 +10°C° 0 mm 3 mps 671 mmHg 61%
    20:00 +10°C° 0 mm 3 mps 671 mmHg 61%
    21:00 +9°C° 0 mm 3 mps 671 mmHg 62%
    22:00 +9°C° 0 mm 3 mps 671 mmHg 63%
    23:00 +9°C° 0 mm 3 mps 671 mmHg 64%

    Mañana, 16 Diciembre, Lunes

    Tiempo Temperatura Precipitaciones Viento Presión Humedad
    00:00 +9°C° 0 mm 3 mps 671 mmHg 65%
    01:00 +8°C° 0 mm 3 mps 670 mmHg 67%
    02:00 +8°C° 0 mm 3 mps 670 mmHg 70%
    03:00 +8°C° 0 mm 3 mps 670 mmHg 72%
    04:00 +7°C° 0 mm 3 mps 670 mmHg 73%
    05:00 +7°C° 0 mm 3 mps 669 mmHg 74%
    06:00 +7°C° 0 mm 3 mps 669 mmHg 75%
    07:00 +8°C° 0 mm 3 mps 670 mmHg 71%
    08:00 +10°C° 0 mm 3 mps 670 mmHg 66%
    09:00 +11°C° 0 mm 3 mps 671 mmHg 62%
    10:00 +12°C° 0 mm 4 mps 671 mmHg 56%
    11:00 +13°C° 0 mm 5 mps 670 mmHg 50%
    12:00 +15°C° 0 mm 5 mps 670 mmHg 45%
    13:00 +14°C° 0 mm 5 mps 669 mmHg 46%
    14:00 +14°C° 0 mm 5 mps 669 mmHg 47%
    15:00 +13°C° 0 mm 4 mps 668 mmHg 49%
    16:00 +12°C° 0 mm 4 mps 668 mmHg 55%
    17:00 +11°C° 0 mm 4 mps 667 mmHg 60%
    18:00 +10°C° 0 mm 3 mps 667 mmHg 66%
    19:00 +9°C° 0 mm 3 mps 667 mmHg 67%
    20:00 +9°C° 0 mm 3 mps 667 mmHg 67%
    21:00 +8°C° 0 mm 4 mps 667 mmHg 67%
    22:00 +9°C° 0 mm 3 mps 666 mmHg 68%
    23:00 +9°C° 0 mm 3 mps 666 mmHg 68%

    Pasado mañana, 17 Diciembre, Martes

    Tiempo Temperatura Precipitaciones Viento Presión Humedad
    00:00 +9°C° 0 mm 3 mps 666 mmHg 68%
    01:00 +8°C° 0 mm 3 mps 665 mmHg 68%
    02:00 +8°C° 0 mm 3 mps 665 mmHg 67%
    03:00 +8°C° 0 mm 3 mps 665 mmHg 67%
    04:00 +8°C° 0 mm 3 mps 664 mmHg 66%
    05:00 +8°C° 0 mm 3 mps 664 mmHg 66%
    06:00 +8°C° 0 mm 3 mps 664 mmHg 65%
    07:00 +8°C° 0 mm 4 mps 664 mmHg 58%
    08:00 +10°C° 0 mm 5 mps 664 mmHg 51%
    09:00 +13°C° 0 mm 6 mps 665 mmHg 45%
    10:00 +13°C° 0 mm 8 mps 664 mmHg 40%
    11:00 +14°C° 0 mm 11 mps 664 mmHg 35%
    12:00 +15°C° 0 mm 13 mps 663 mmHg 31%
    13:00 +14°C° 0 mm 12 mps 663 mmHg 31%
    14:00 +13°C° 0 mm 11 mps 662 mmHg 32%
    15:00 +12°C° 0 mm 10 mps 662 mmHg 32%
    16:00 +11°C° 0 mm 8 mps 661 mmHg 40%
    17:00 +10°C° 0 mm 6 mps 661 mmHg 48%
    18:00 +8°C° 0 mm 4 mps 661 mmHg 56%
    19:00 +8°C° 0.2 mm 4 mps 661 mmHg 61%
    20:00 +8°C° 0.2 mm 4 mps 661 mmHg 66%
    21:00 +7°C° 0.2 mm 4 mps 661 mmHg 71%
    22:00 +8°C° 1 mm 3 mps 661 mmHg 75%
    23:00 +7°C° 1 mm 2 mps 661 mmHg 78%

    18 Diciembre, Miércoles

    Tiempo Temperatura Precipitaciones Viento Presión Humedad
    00:00 +6°C° 1 mm 2 mps 660 mmHg 82%
    01:00 +6°C° 0.2 mm 2 mps 660 mmHg 85%
    02:00 +4°C° 0.2 mm 3 mps 661 mmHg 88%
    03:00 +4°C° 0.2 mm 4 mps 661 mmHg 91%
    04:00 +3°C° 0.3 mm 4 mps 661 mmHg 88%
    05:00 +3°C° 0.3 mm 4 mps 661 mmHg 85%
    06:00 +3°C° 0.3 mm 4 mps 661 mmHg 83%
    07:00 +2°C° 0.2 mm 5 mps 662 mmHg 83%
    08:00 +2°C° 0.2 mm 6 mps 662 mmHg 84%
    09:00 +2°C° 0.2 mm 7 mps 663 mmHg 85%
    10:00 +2°C° 0.1 mm 8 mps 663 mmHg 82%
    11:00 +4°C° 0.1 mm 8 mps 663 mmHg 80%
    12:00 +3°C° 0.1 mm 9 mps 663 mmHg 77%
    13:00 +3°C° 0 mm 9 mps 663 mmHg 78%
    14:00 +3°C° 0 mm 9 mps 663 mmHg 78%
    15:00 +3°C° 0 mm 9 mps 664 mmHg 79%
    16:00 +4°C° 0 mm 8 mps 664 mmHg 80%
    17:00 +3°C° 0 mm 7 mps 665 mmHg 81%
    18:00 +3°C° 0 mm 5 mps 666 mmHg 82%
    19:00 +3°C° 0 mm 5 mps 666 mmHg 82%
    20:00 +3°C° 0 mm 4 mps 667 mmHg 83%
    21:00 +3°C° 0 mm 3 mps 667 mmHg 83%
    22:00 +2°C° 0 mm 3 mps 668 mmHg 81%
    23:00 +2°C° 0 mm 3 mps 668 mmHg 79%

    19 Diciembre, Jueves

    Tiempo Temperatura Precipitaciones Viento Presión Humedad
    00:00 +3°C° 0 mm 2 mps 668 mmHg 77%
    01:00 +3°C° 0 mm 2 mps 668 mmHg 75%
    02:00 +3°C° 0 mm 2 mps 668 mmHg 74%
    03:00 +3°C° 0 mm 2 mps 668 mmHg 72%
    04:00 +4°C° 0 mm 1 mps 669 mmHg 71%
    05:00 +4°C° 0 mm 1 mps 669 mmHg 69%
    06:00 +4°C° 0 mm 1 mps 669 mmHg 68%
    07:00 +6°C° 0 mm 1 mps 670 mmHg 60%
    08:00 +9°C° 0 mm 1 mps 671 mmHg 52%
    09:00 +10°C° 0 mm 2 mps 672 mmHg 44%
    10:00 +12°C° 0 mm 2 mps 672 mmHg 43%
    11:00 +12°C° 0 mm 2 mps 672 mmHg 42%
    12:00 +12°C° 0 mm 3 mps 672 mmHg 41%
    13:00 +12°C° 0 mm 3 mps 671 mmHg 47%
    14:00 +11°C° 0 mm 3 mps 671 mmHg 53%
    15:00 +11°C° 0 mm 3 mps 671 mmHg 60%
    16:00 +10°C° 0 mm 3 mps 670 mmHg 65%
    17:00 +9°C° 0 mm 3 mps 670 mmHg 71%
    18:00 +7°C° 0 mm 3 mps 670 mmHg 77%
    19:00 +7°C° 0 mm 3 mps 670 mmHg 77%
    20:00 +7°C° 0 mm 3 mps 670 mmHg 77%
    21:00 +7°C° 0 mm 3 mps 671 mmHg 77%
    22:00 +7°C° 0 mm 3 mps 670 mmHg 77%
    23:00 +7°C° 0 mm 3 mps 670 mmHg 78%

    20 Diciembre, Viernes

    Tiempo Temperatura Precipitaciones Viento Presión Humedad
    00:00 +7°C° 0 mm 3 mps 670 mmHg 78%
    01:00 +7°C° 0 mm 3 mps 670 mmHg 77%
    02:00 +7°C° 0 mm 3 mps 669 mmHg 77%
    03:00 +7°C° 0 mm 3 mps 669 mmHg 77%
    04:00 +7°C° 0 mm 3 mps 669 mmHg 76%
    05:00 +7°C° 0 mm 3 mps 668 mmHg 75%
    06:00 +7°C° 0 mm 3 mps 668 mmHg 74%
    07:00 +8°C° 0 mm 3 mps 669 mmHg 70%
    08:00 +10°C° 0 mm 4 mps 669 mmHg 65%
    09:00 +10°C° 0 mm 5 mps 669 mmHg 60%
    10:00 +11°C° 0 mm 6 mps 669 mmHg 55%
    11:00 +11°C° 0 mm 8 mps 668 mmHg 51%
    12:00 +12°C° 0 mm 10 mps 667 mmHg 46%
    13:00 +11°C° 0 mm 10 mps 667 mmHg 47%
    14:00 +11°C° 0 mm 10 mps 666 mmHg 48%
    15:00 +9°C° 0 mm 10 mps 665 mmHg 48%
    16:00 +8°C° 0 mm 9 mps 665 mmHg 51%
    17:00 +8°C° 0 mm 9 mps 665 mmHg 54%
    18:00 +7°C° 0 mm 8 mps 665 mmHg 57%
    19:00 +7°C° 0 mm 8 mps 665 mmHg 60%
    20:00 +7°C° 0 mm 8 mps 665 mmHg 63%
    21:00 +8°C° 0 mm 7 mps 665 mmHg 66%
    22:00 +8°C° 0.1 mm 7 mps 665 mmHg 74%
    23:00 +8°C° 0.1 mm 6 mps 665 mmHg 83%
    Mostrar más